[[{"header":{"parameterUnit":"m.s-1","parameterCategory":1,"la1":30.2991,"la2":30.254,"lo1":-89.0895,"lo2":-89.0444,"dy":0.0017,"dx":0.0017,"nx":28,"ny":28,"refTime":"2024-08-28T09:00:00:Z","depth":0,"parameterNumber":2,"parameterNumberName":"U-component_of_WINDS"},"data":[0,0,0,0,0,0,0,0,0,0,0,0,0,0,0,0,0,0,0,0,0,0,0,0,0,0,0,0,0,0,0,0,0,0,0,0,0,0,0,0,0,0,0,0,0,0,0,0,0,0,0,0,0,0,0,0,0,0,-2.8981,-2.898,0,-2.8937,-2.8937,-2.8936,-2.8895,-2.8895,-2.8894,-2.8893,-2.8848,-2.8848,-2.8847,0,0,0,0,0,0,0,0,0,0,0,0,0,-2.9026,-2.9025,-2.8981,-2.898,-2.898,-2.8938,-2.8937,-2.8936,-2.8895,-2.8894,-2.8894,-2.8893,-2.8849,-2.8848,-2.8847,0,0,0,0,0,0,0,0,0,0,0,0,0,-2.8997,-2.9025,-2.8981,-2.8954,-2.8951,-2.8938,-2.8937,-2.8936,-2.8895,-2.8894,-2.8894,-2.8893,-2.8849,-2.8848,-2.8847,-2.8856,0,0,-2.8843,-2.8843,0,0,0,0,0,0,0,0,-2.8999,-2.8995,-2.8958,-2.8956,-2.8953,-2.8921,-2.8936,-2.8909,-2.8895,-2.8916,-2.8893,-2.8893,-2.8873,-2.887,-2.8863,-2.8854,-2.8852,-2.8843,-2.8843,-2.8842,-2.8842,0,0,0,0,0,0,0,-2.9001,-2.8997,-2.8963,-2.8958,-2.8954,-2.8944,-2.8939,-2.8931,-2.89,-2.8915,-2.8911,-2.8907,-2.8871,-2.8865,-2.8862,-2.8851,-2.8843,-2.8842,-2.8842,-2.8841,-2.8845,-2.8846,0,0,0,0,0,0,-2.9007,-2.8999,-2.8965,-2.8962,-2.8974,-2.8943,-2.8938,-2.8932,-2.89,-2.8894,-2.8908,-2.8905,-2.8867,-2.8863,-2.886,-2.8867,-2.8842,-2.8841,-2.8841,-2.8844,-2.8845,-2.8846,0,0,0,0,0,0,-2.9008,-2.9004,-2.8967,-2.898,-2.8974,-2.8943,-2.8937,-2.8931,-2.8925,-2.8894,-2.8889,-2.8907,-2.8866,-2.8862,-2.8857,-2.8865,-2.8841,-2.884,-2.8843,-2.8845,-2.8846,-2.8883,0,0,0,0,0,0,-2.901,-2.9005,-2.9008,-2.898,-2.8973,-2.8964,-2.8938,-2.8931,-2.8923,-2.8919,-2.8892,-2.8887,-2.8865,-2.8859,-2.8856,-2.8863,-2.8839,-2.8842,-2.8844,-2.8845,-2.8881,-2.8885,-2.8889,0,0,0,0,0,-2.9011,-2.9021,-2.9009,-2.9005,-2.8977,-2.8965,-2.8961,-2.8937,-2.8924,-2.8927,-2.8907,-2.8888,-2.8865,-2.8859,-2.8855,-2.8862,-2.8842,-2.8843,-2.8845,-2.8879,-2.8884,-2.8889,0,0,0,0,0,0,-2.9051,-2.9017,-2.9003,-2.9004,-2.8988,-2.8958,-2.8961,-2.8943,-2.893,-2.8927,-2.8897,-2.8891,-2.8889,-2.8876,-2.8869,-2.8869,-2.8851,-2.8852,-2.8878,-2.8882,-2.8886,-2.8889,-2.8838,0,0,0,0,0,-2.906,-2.9053,-2.9023,-2.9027,-2.9019,-2.8992,-2.8986,-2.8968,-2.895,-2.8943,-2.8923,-2.8906,-2.8895,-2.8888,-2.8876,-2.8879,-2.8871,-2.8882,-2.8886,-2.889,-2.889,-2.8889,-2.8893,-2.8851,-2.8851,-2.8851,0,0,-2.9078,-2.9058,-2.9056,-2.9034,-2.902,-2.9013,-2.8986,-2.898,-2.8974,-2.8942,-2.8935,-2.892,-2.8899,-2.8898,-2.8896,-2.8886,-2.8901,-2.8892,-2.8895,-2.8894,-2.8891,-2.8895,-2.8899,-2.8853,-2.8852,-2.8852,0,0,-2.9107,-2.9092,-2.9092,-2.9078,-2.9057,-2.9038,-2.9038,-2.9012,-2.9,-2.8994,-2.8968,-2.8961,-2.8943,-2.8929,-2.8919,-2.8942,-2.8923,-2.8939,-2.896,-2.8959,-2.8962,-2.8965,-2.8972,-2.8974,-2.894,-2.8941,-2.8941,0,-2.9132,-2.912,-2.9095,-2.909,-2.9081,-2.9051,-2.9051,-2.9038,-2.9014,-2.9008,-2.8998,-2.8973,-2.8957,-2.8951,-2.8957,-2.8951,-2.8949,-2.8941,-2.8964,-2.8966,-2.8969,-2.8974,-2.8977,-2.8943,-2.8942,-2.8942,-2.8942,0,-2.9151,-2.9144,-2.9147,-2.9124,-2.9115,-2.9113,-2.9086,-2.908,-2.9064,-2.9046,-2.9039,-2.9019,-2.9001,-2.8999,-2.8983,-2.899,-2.8985,-2.897,-2.8951,-2.8975,-2.898,-2.8982,-2.8945,-2.8945,-2.8944,-2.8944,0,0,-2.9203,-2.9166,-2.9167,-2.9156,-2.913,-2.9123,-2.9119,-2.9103,-2.9098,-2.9082,-2.9077,-2.9062,-2.9048,-2.9037,-2.9019,-2.9018,-2.9036,-2.9003,-2.9002,-2.9008,-2.9041,-2.9051,-2.9054,-2.9023,-2.9024,-2.9024,-2.9042,0,-2.9226,-2.9217,-2.9194,-2.9192,-2.9184,-2.9156,-2.9152,-2.9135,-2.9119,-2.9109,-2.909,-2.908,-2.9063,-2.9056,-2.9054,-2.9034,-2.9041,-2.9033,-2.9017,-2.9017,-2.9021,-2.9057,-2.9068,-2.9086,-2.9044,-2.9044,-2.9044,0,-2.9252,-2.9238,-2.9235,-2.9208,-2.9204,-2.9201,-2.9183,-2.9175,-2.9155,-2.9143,-2.9131,-2.9111,-2.9104,-2.9087,-2.9077,-2.9071,-2.9063,-2.9053,-2.9053,-2.9049,-2.9031,-2.9053,-2.9091,-2.9093,-2.9048,-2.9047,-2.9047,0,-2.9288,-2.9269,-2.9264,-2.9255,-2.9224,-2.9223,-2.921,-2.9189,-2.918,-2.9165,-2.9159,-2.9143,-2.9134,-2.9122,-2.9097,-2.9088,-2.9089,-2.9071,-2.9077,-2.9078,-2.9078,-2.9078,-2.9114,-2.9076,-2.9076,-2.9076,-2.9076,0,-2.9316,-2.9315,-2.9279,-2.9276,-2.9274,-2.9247,-2.9245,-2.9229,-2.9211,-2.9204,-2.9179,-2.9173,-2.9142,-2.9132,-2.9113,-2.9106,-2.9102,-2.9091,-2.9086,-2.9093,-2.9094,-2.9086,-2.9084,-2.9076,-2.9076,-2.9076,-2.9076,0,-2.9355,-2.9332,-2.9324,-2.9296,-2.9288,-2.9288,-2.9263,-2.9258,-2.924,-2.9231,-2.9228,-2.9199,-2.9186,-2.9161,-2.9141,-2.9128,-2.9124,-2.9116,-2.9131,-2.9128,-2.9135,-2.9134,-2.9166,-2.9168,-2.9131,-2.9131,-2.9131,0,-2.9374,-2.9372,-2.9343,-2.9336,-2.9324,-2.9314,-2.9305,-2.9279,-2.927,-2.9246,-2.9245,-2.9229,-2.9215,-2.9195,-2.9172,-2.9156,-2.9147,-2.9159,-2.9144,-2.915,-2.9145,-2.9144,-2.9143,-2.9162,-2.9162,-2.9163,-2.9163,0,-2.9408,-2.9396,-2.9384,-2.9368,-2.9358,-2.9344,-2.9328,-2.9324,-2.9294,-2.9285,-2.9271,-2.926,-2.9239,-2.9224,-2.9205,-2.919,-2.9171,-2.9168,-2.9169,-2.9175,-2.9183,-2.9177,-2.9139,-2.9167,-2.9167,-2.9167,-2.9166,-2.9166,-2.9436,-2.9433,-2.9412,-2.9399,-2.9384,-2.937,-2.9364,-2.9346,-2.9334,-2.9314,-2.9299,-2.9286,-2.9265,-2.9237,-2.9224,-2.9213,-2.9204,-2.9205,-2.9205,-2.9205,-2.9207,-2.9186,-2.9209,-2.9209,-2.9209,-2.9209,-2.9209,0,-2.9468,-2.9453,-2.9442,-2.942,-2.941,-2.9394,-2.9375,-2.9368,-2.9356,-2.9339,-2.9325,-2.9309,-2.9294,-2.9269,-2.9252,-2.9248,-2.9238,-2.9244,-2.9243,-2.924,-2.9217,-2.9217,-2.9251,-2.9251,-2.9251,-2.9251,-2.9251,-2.9251,-2.9483,-2.9477,-2.9462,-2.9448,-2.9432,-2.9419,-2.941,-2.9397,-2.9382,-2.9365,-2.9352,-2.9336,-2.9316,-2.9296,-2.9281,-2.9274,-2.9269,-2.9276,-2.9267,-2.9246,-2.9242,-2.9238,-2.9238,-2.9276,-2.9276,-2.929,-2.9291,-2.9291]},{"header":{"parameterUnit":"m.s-1","parameterCategory":1,"la1":30.2991,"la2":30.254,"lo1":-89.0895,"lo2":-89.0444,"dy":0.0017,"dx":0.0017,"nx":28,"ny":28,"refTime":"2024-08-28T09:00:00:Z","depth":0,"parameterNumber":3,"parameterNumberName":"V-component_of_WINDS"},"data":[0,0,0,0,0,0,0,0,0,0,0,0,0,0,0,0,0,0,0,0,0,0,0,0,0,0,0,0,0,0,0,0,0,0,0,0,0,0,0,0,0,0,0,0,0,0,0,0,0,0,0,0,0,0,0,0,0,0,5.3288,5.3288,0,5.3316,5.3317,5.3317,5.3246,5.3244,5.3242,5.324,5.3264,5.3267,5.327,0,0,0,0,0,0,0,0,0,0,0,0,0,5.3168,5.317,5.3288,5.3288,5.3288,5.3316,5.3317,5.3317,5.3247,5.3244,5.3241,5.3239,5.3263,5.3267,5.327,0,0,0,0,0,0,0,0,0,0,0,0,0,5.321,5.3171,5.3288,5.3257,5.3254,5.3316,5.3317,5.3317,5.3247,5.3244,5.324,5.3237,5.3262,5.3266,5.327,5.3362,0,0,5.3283,5.3285,0,0,0,0,0,0,0,0,5.3208,5.3215,5.3261,5.3259,5.3256,5.3274,5.3283,5.3332,5.3248,5.325,5.324,5.3236,5.327,5.3273,5.3286,5.3363,5.3364,5.3283,5.3286,5.3287,5.3289,0,0,0,0,0,0,0,5.3205,5.3213,5.3299,5.3262,5.3259,5.324,5.3242,5.3292,5.3278,5.3249,5.3244,5.3249,5.3268,5.3282,5.3286,5.3365,5.3283,5.3287,5.3289,5.3291,5.3518,5.3522,0,0,0,0,0,0,5.3207,5.3211,5.3298,5.33,5.3224,5.3245,5.3247,5.3272,5.3277,5.3275,5.3252,5.3245,5.3277,5.3281,5.3286,5.3394,5.3287,5.3291,5.3294,5.3515,5.3519,5.3523,0,0,0,0,0,0,5.3204,5.3215,5.3297,5.3254,5.3263,5.325,5.3278,5.3274,5.3288,5.3279,5.3276,5.3269,5.3274,5.3281,5.3344,5.3394,5.3293,5.3297,5.351,5.3516,5.3521,5.3609,0,0,0,0,0,0,5.3201,5.3215,5.325,5.3255,5.3266,5.3355,5.3281,5.3277,5.3296,5.3288,5.3294,5.3292,5.3272,5.3338,5.3348,5.3397,5.33,5.3506,5.3513,5.3519,5.3602,5.3617,5.363,0,0,0,0,0,5.3197,5.3273,5.3253,5.3263,5.331,5.3358,5.3364,5.3341,5.33,5.3335,5.3329,5.3292,5.3387,5.3345,5.3356,5.3407,5.3503,5.3511,5.3519,5.3596,5.3614,5.363,0,0,0,0,0,0,5.3272,5.3273,5.325,5.3331,5.3345,5.3346,5.339,5.3361,5.3386,5.3378,5.3346,5.3348,5.3417,5.3418,5.3372,5.3496,5.3438,5.3448,5.3492,5.351,5.3524,5.3521,5.3303,0,0,0,0,0,5.3299,5.3339,5.3337,5.3408,5.3417,5.3403,5.3422,5.3404,5.3417,5.3422,5.3421,5.3434,5.3466,5.3488,5.3518,5.3602,5.3602,5.3643,5.3657,5.3668,5.3677,5.3721,5.3739,5.3549,5.3549,5.3549,0,0,5.3352,5.3358,5.3385,5.3423,5.3432,5.3474,5.3408,5.3454,5.3484,5.3428,5.3488,5.3488,5.35,5.3575,5.3607,5.3578,5.373,5.3679,5.3688,5.3691,5.3732,5.3749,5.3765,5.3555,5.3554,5.3553,0,0,5.3472,5.3481,5.354,5.3551,5.3567,5.3557,5.3571,5.3577,5.3576,5.3636,5.3595,5.3629,5.3686,5.3697,5.371,5.3834,5.38,5.3845,5.3917,5.3961,5.3976,5.3989,5.4032,5.4048,5.3854,5.3854,5.3854,0,5.3536,5.3598,5.3574,5.3624,5.3642,5.3595,5.3655,5.3666,5.369,5.3702,5.3669,5.374,5.3745,5.3821,5.3852,5.3864,5.3878,5.3843,5.3976,5.3989,5.4001,5.4042,5.4058,5.3859,5.3859,5.3858,5.3858,0,5.3676,5.372,5.3766,5.3792,5.3815,5.3869,5.3853,5.3878,5.3858,5.3851,5.3913,5.3917,5.3947,5.3964,5.3944,5.4037,5.4018,5.3981,5.3922,5.4024,5.4062,5.4078,5.3867,5.3865,5.3863,5.3862,0,0,5.3842,5.3855,5.3873,5.3884,5.3898,5.393,5.3982,5.4013,5.4035,5.4053,5.4095,5.4145,5.4112,5.4126,5.4107,5.4145,5.4243,5.4103,5.4103,5.4128,5.4345,5.4372,5.439,5.4221,5.4224,5.4226,5.4343,0,5.3959,5.405,5.4031,5.4119,5.4159,5.4116,5.4161,5.4174,5.4169,5.4201,5.4195,5.4231,5.4184,5.4193,5.4229,5.4223,5.4285,5.4215,5.4258,5.426,5.4255,5.441,5.4439,5.4549,5.4358,5.4361,5.4363,0,5.4107,5.4133,5.4227,5.4235,5.425,5.4292,5.4318,5.435,5.4363,5.4357,5.4374,5.4347,5.4397,5.4339,5.4407,5.4359,5.4376,5.4376,5.438,5.4382,5.4317,5.4416,5.4584,5.46,5.4386,5.4384,5.4382,0,5.4218,5.4276,5.4339,5.435,5.4361,5.4391,5.4397,5.4407,5.4427,5.445,5.4462,5.449,5.4505,5.4527,5.4508,5.4468,5.4579,5.4519,5.4574,5.4575,5.4598,5.4597,5.4771,5.4611,5.4611,5.4611,5.461,0,5.435,5.4408,5.4389,5.4428,5.4492,5.4469,5.4532,5.4532,5.4542,5.4579,5.4544,5.4579,5.4552,5.4585,5.4571,5.4629,5.4636,5.4631,5.4627,5.4634,5.4635,5.4643,5.4635,5.4615,5.4614,5.4613,5.4613,0,5.4483,5.4473,5.4539,5.4545,5.4548,5.4595,5.4599,5.4634,5.4628,5.4675,5.4685,5.4674,5.471,5.4694,5.4732,5.4723,5.4797,5.4783,5.4793,5.4789,5.4845,5.4839,5.5029,5.5053,5.488,5.4881,5.4883,0,5.4568,5.4612,5.4624,5.4647,5.4656,5.4693,5.4714,5.4693,5.4715,5.4734,5.4767,5.4801,5.4827,5.4888,5.4882,5.4911,5.4896,5.4961,5.49,5.4906,5.4896,5.4893,5.4897,5.4973,5.4975,5.4976,5.4978,0,5.4718,5.4711,5.4743,5.4774,5.48,5.4823,5.4842,5.4862,5.4842,5.4869,5.4907,5.4928,5.4968,5.5001,5.5027,5.5031,5.5001,5.4997,5.5011,5.5019,5.5023,5.502,5.4825,5.4992,5.4991,5.499,5.4989,5.4989,5.4829,5.4866,5.4881,5.4917,5.493,5.4949,5.4983,5.4981,5.5013,5.5045,5.5031,5.5075,5.5086,5.5118,5.5127,5.516,5.5134,5.5155,5.5159,5.5165,5.5172,5.5019,5.5164,5.5164,5.5163,5.5163,5.5163,0,5.4977,5.4984,5.5019,5.5048,5.5077,5.5048,5.5068,5.5093,5.5133,5.5148,5.5175,5.5218,5.5251,5.5249,5.5279,5.5306,5.5293,5.5314,5.5311,5.5313,5.5193,5.5178,5.5324,5.5324,5.5324,5.5324,5.5324,5.5324,5.5057,5.5119,5.5114,5.5181,5.5187,5.5232,5.5246,5.5263,5.5274,5.5325,5.5353,5.5352,5.5359,5.539,5.5418,5.5417,5.5429,5.5456,5.5449,5.5337,5.5321,5.5306,5.5291,5.5459,5.5459,5.5565,5.5566,5.5567]}]]